World > North America > United States > New York > Millers Mills

Hourly Millers Mills, NY Regional Weather

Feedback E-mail the Weather

Quick WX

Millers Mills, NY Weather Maps

°F °C°F °C
Millers Mills Weather Map
UTC Time: 8/12/2022, 11:47
Your Time:

Millers Mills, NY Regional Weather

Expires:202208121200;;964619
ASUS41 KGYX 121110
RWRGYX
WEATHER ROUNDUP FOR MAINE AND NEW HAMPSHIRE
NATIONAL WEATHER SERVICE GRAY ME
700 AM EDT FRI AUG 12 2022


MAZ007-012-024-CTZ003-RIZ002-NYZ038-NYZ072-121200-
SOUTHERN NEW ENGLAND AND NY
  
CITY           SKY/WX    TMP DP  RH WIND       PRES   REMARKS
BOSTON         PTSUNNY   68  59  73 NW14      29.94R                  
WORCESTER      SUNNY     63  54  72 N8        29.99R                  
NANTUCKET      PTSUNNY   73  71  93 CALM      29.92R                  
PROVIDENCE     PTSUNNY   69  59  70 N12       29.94R                  
HARTFORD       MOSUNNY   63  58  83 N5        29.98R                  
ALBANY         MOSUNNY   62  57  83 N3        30.05R                  
NEW YORK CITY  MOCLDY    72  56  57 N13       29.96R                  
$$


SKY/WX - Weather  TMP - Temperature  DP - Dew Point  RH - Humidity
WIND - Wind Direction/Speed PRES - Barometric Pressure VSB - Visibility
WCI - Wind Chill Index E13G22 Wind - East Wind 13 mph/Gusts of 22 mph

Trending Headlines

Millers Mills Radar Loop



Millers Mills Quick Facts


National Two Day Weather Forecast


E-mail the Millers Mills Weather Forecast

Voice your opinion or tell us about page issues...